Home > Weather > Fredericton > Past weeks

Flag for Canada Past Weather in Fredericton, New Brunswick, Canada — Yesterday and Last 2 Weeks

Now
50 °F

Overcast.


Feels Like: 48 °F
Forecast: 50 / 72 °F
Wind: 5 mph from Southwest

Location: Fredericton

Current Time: May 24, 2016 at 7:05:17 AM

Latest Report: May 24, 2016 at 6:00 AM


Visibility: 9 mi

Pressure: 30.01 "Hg

Humidity: 94%

Dew Point: 48 °F

Location of FrederictonLocation

Past Weather in Fredericton — Graph

°F

Fredericton Temperature Yesterday

Maximum temperature yesterday: 73 °F (at 3:00 PM)
Minimum temperature yesterday: 52 °F (at 5:00 AM)
Average temperature yesterday: 63 °F

High & Low Weather Summary for the Past Weeks

 TemperatureHumidityPressure
High82 °F (May 21, 4:00 PM)100% (May 14, 8:02 AM)30.12 "Hg (May 14, 8:02 AM)
Low32 °F (May 11, 6:00 AM)17% (May 11, 3:00 PM)29.36 "Hg (May 15, 8:00 PM)
Average54 °F60%29.87 "Hg
* Reported May 9 5:00 AM — May 24 5:00 AM, Fredericton, Weather by CustomWeather, © 2016

Note: Actual official high and low records may vary slightly from our data, if they occured in-between our weather recording intervals... More about our weather records

Advertising

Fredericton Weather History for the Previous 24 Hours

Scroll right to see more
 ConditionsComfort  
Time TempWeatherWind HumidityBarometerVisibility
5:00 AM
Tue, May 24
48 °FClear.6 mph94%29.99 "Hg9 mi
4:04 AM50 °FFog.2 mph94%29.97 "Hg4 mi
3:53 AM50 °FPassing clouds.2 mph94%29.97 "Hg9 mi
3:00 AM50 °FClear.5 mph94%29.98 "Hg9 mi
2:00 AM52 °FClear.3 mph88%29.98 "Hg9 mi
1:00 AM54 °FPassing clouds.No wind88%29.97 "Hg9 mi
12:00 AM57 °FPartly cloudy.No wind82%29.96 "Hg9 mi
11:00 PM
Mon, May 23
59 °FClear.5 mph77%29.93 "Hg9 mi
10:00 PM63 °FClear.5 mph68%29.93 "Hg9 mi
9:00 PM66 °FSunny.7 mph60%29.92 "Hg9 mi
8:00 PM70 °FPassing clouds.10 mph53%29.89 "Hg9 mi
7:00 PM72 °FPassing clouds.15 mph50%29.88 "Hg9 mi
6:00 PM73 °FPartly sunny.15 mph47%29.86 "Hg9 mi
5:00 PM72 °FOvercast.12 mph53%29.86 "Hg9 mi
4:00 PM73 °FCloudy.9 mph47%29.86 "Hg9 mi
3:00 PM73 °FBroken clouds.18 mph44%29.87 "Hg9 mi
2:00 PM72 °FBroken clouds.16 mph50%29.88 "Hg9 mi
1:00 PM70 °FPartly sunny.17 mph53%29.89 "Hg9 mi
12:00 PM68 °FScattered clouds.18 mph56%29.89 "Hg9 mi
11:00 AM66 °FPassing clouds.18 mph60%29.90 "Hg9 mi
10:00 AM63 °FOvercast.15 mph64%29.91 "Hg9 mi
9:00 AM57 °FOvercast.12 mph72%29.91 "Hg9 mi
8:00 AM55 °FOvercast.8 mph72%29.91 "Hg9 mi
7:00 AM52 °FMostly cloudy.5 mph82%29.90 "Hg9 mi
Weather by CustomWeather, © 2016

See weather overviewHow to use our weather pages